www.pogodaiklimat.ru

АРХИВ ПОГОДЫ в Хьюстоне

Время (UTC), дата Ветер
(напр.,м/с)
 
Видим.   Явления Облачность Т
(С)
Тd
(С)
f
(%)
Тe
(С)
Тes
(С)
Комфортность

P
(гПа)

Po
(гПа)
Тmin
(С)
Tmax
(С)
R
(мм)
SD
(см)
10:53 16.10 С  16 км    5/0 2100 м
[средняя] 
+19.4  +10.0  55  +20  +20    1022.7  1020.5         
11:53 16.10 С  16 км    5/0 2550 м
[средняя] 
+18.9  +9.4  54  +19  +19    1023.6  1021.2         
12:53 16.10 С  7
{10} 
16 км    2/0 2550 м
[средняя] 
+17.8  +8.9  56  +17  +17    1024.3  1021.9         
13:53 16.10 С  6
{10} 
16 км    2/0 2550 м
[средняя] 
+18.9  +8.9  52  +19  +19    1025.5  1023.2         
14:53 16.10 С  10
{13} 
16 км    2/0 3000 м
[средняя] 
+20.0  +9.0  49  +20  +20    1025.5  1023.2         
15:53 16.10 С  8
{11} 
16 км    2/0 7500 м
[верхняя] 
+21.0  +8.0  43  +22  +22  комфорт  1025.3  1023.2         
16:53 16.10 С  16 км    2/0 7500 м
[верхняя] 
+22.8  +8.3  39  +24  +25  комфорт  1025.0  1022.6         
17:53 16.10 С  16 км    2/0 7500 м
[верхняя] 
+24.4  +7.2  33  +25  +26  комфорт  1024.0  1021.9         
18:53 16.10 С  16 км    5/0 7500 м
[верхняя] 
+25.0  +6.7  31  +25  +26  комфорт  1022.7  1020.5         
19:53 16.10 С  9
{13} 
16 км    2/0 7500 м
[верхняя] 
+25.6  +7.8  32  +26  +26  жарко  1021.9  1019.9         
20:53 16.10 С  9
{11} 
16 км    2/0 7500 м
[верхняя] 
+26.1  +7.8  31  +26  +26  жарко  1021.5  1019.2         
21:53 16.10 С  7
{11} 
16 км    2/0 7500 м
[верхняя] 
+25.6  +7.8  32  +26  +27  жарко  1021.4  1019.2         
22:53 16.10 С  16 км    2/0 7500 м
[верхняя] 
+24.4  +7.2  33  +25  +25  комфорт  1022.0  1019.9         
23:53 16.10 С  16 км    2/0 7500 м
[верхняя] 
+22.8  +7.2  37  +24  +24  комфорт  1022.5  1020.2         
00:53 17.10 С  16 км    2/0 7500 м
[верхняя] 
+21.7  +7.8  41  +23  +23  комфорт  1023.3  1021.2         
01:53 17.10 С  16 км    ясно  +21.1  +8.3  44  +22  +22  комфорт  1023.8  1021.6         
02:53 17.10 СВ  16 км    ясно  +20.6  +7.8  44  +21  +21  комфорт  1024.1  1021.9         
03:53 17.10 СВ  16 км    ясно  +20.0  +7.2  43  +20  +20    1024.2  1021.9         
04:53 17.10 СВ  16 км    ясно  +18.3  +7.2  48  +18  +18    1024.2  1021.9         
05:53 17.10 СВ  16 км    ясно  +17.8  +7.2  50  +17  +17    1024.0  1021.9    +22.8     
06:53 17.10 СВ  16 км    ясно  +17.2  +7.2  52  +17  +17    1023.9  1021.6         
07:53 17.10 СВ  16 км    ясно  +16.1  +7.2  56  +15  +15    1023.7  1021.6         
08:53 17.10 СВ  16 км    ясно  +15.0  +7.2  60  +14  +14    1023.5  1021.2         
09:53 17.10 СВ  16 км    ясно  +15.0  +7.2  60  +14  +14    1023.6  1021.2         
10:53 17.10 СВ  16 км    ясно  +14.4  +6.7  60  +13  +13    1024.0  1021.9         
11:53 17.10 СВ  16 км    ясно  +13.9  +6.7  62  +12  +12    1024.4  1022.2    +18.3     
12:53 17.10 СВ  16 км    ясно  +14.4  +6.7  60  +13  +13    1024.7  1022.6         
13:53 17.10 СВ  16 км    ясно  +16.1  +7.2  56  +15  +15    1025.3  1022.9         
14:53 17.10 СВ  16 км    ясно  +18.3  +7.8  50  +18  +19    1025.7  1023.6         
15:53 17.10 СВ  16 км    ясно  +20.6  +8.3  45  +22  +25  комфорт  1025.4  1023.2         
16:53 17.10 С  16 км    ясно  +22.2  +7.8  40  +23  +31  комфорт  1024.8  1022.6         
17:53 17.10 СВ  16 км    ясно  +23.3  +7.2  35  +24  +33  комфорт  1023.9  1021.6    +23.9     
18:53 17.10 С  16 км    ясно  +24.4  +6.1  31  +24  +34  комфорт  1022.7  1020.5         
19:53 17.10 СВ  16 км    ясно  +25.6  +5.6  28  +25  +33  комфорт  1021.9  1019.5         
20:53 17.10 СВ  16 км    ясно  +26.1  +6.1  28  +26  +31  жарко  1021.0  1018.8         
21:53 17.10 С  16 км    ясно  +26.1  +4.4  25  +25  +29  комфорт  1020.9  1018.5         
22:53 17.10 С  16 км    ясно  +25.0  +6.7  31  +25  +27  комфорт  1020.6  1018.5         
23:53 17.10 СВ  16 км    ясно  +21.7  +6.7  38  +22  +23  комфорт  1020.8  1018.5    +26.7     
00:53 18.10 штиль  16 км    ясно  +19.4  +8.3  49  +20  +20    1021.5  1019.2         
01:53 18.10 штиль  16 км    ясно  +17.8  +9.4  58  +18  +18    1021.8  1019.5         
02:53 18.10 штиль  16 км    ясно  +17.2  +10.0  63  +17  +17    1022.3  1020.2         
03:53 18.10 С  16 км    2/2 600 м  +16.7  +9.4  62  +17  +17    1022.2  1019.9         
04:53 18.10 штиль  16 км    2/0 7500 м
[верхняя] 
+15.6  +10.0  69  +15  +15    1021.8  1019.5         
05:53 18.10 штиль  16 км    2/0 7500 м
[верхняя] 
+15.0  +10.0  72  +15  +15    1021.8  1019.5  +15.0       
06:53 18.10 штиль  16 км    2/0 7500 м
[верхняя] 
+14.4  +10.0  75  +14  +14    1021.4  1019.2         
07:53 18.10 штиль  16 км    ясно  +14.4  +10.0  75  +14  +14    1021.3  1019.2         
08:53 18.10 штиль  16 км    ясно  +14.4  +10.0  75  +14  +14    1020.9  1018.5         
09:53 18.10 СВ  16 км    ясно  +14.4  +10.0  75  +14  +14    1020.5  1018.2         

 

Местоположение метеостанции Houston Hobby Airport: широта 29.6375 долгота -95.2825 высота над уровнем моря 14 м.

В архиве по умолчанию представлена погода в Хьюстоне за последние 1-2 суток. Обновление информации о фактической погоде в базе происходит ежечасно! Архивные данные за месяц целиком и за предыдущие месяцы Вы можете получить, выбрав интересующий диапазон дат из раскрывающегося списка и нажав кнопку "Ввод!".

Внимание! Архив погоды МЕТАР в базе сайта в настоящее время начинается c 1 января 2013 г. Нет смысла пытаться выбрать более раннюю дату.

Внимание! Время в таблицах - всемирное. Для получения местного времени необходимо прибавить поправку, которая в Хьюстоне равна -6 ч.

Ветер - указаны скорость ветра в м/с и направление, откуда дует ветер: С - северный, СВ - северо-восточный, В - восточный, ЮВ - юго-восточный, Ю - южный, ЮЗ - юго-западный, З - западный, СЗ - северо-западный.
Видимость - горизонтальная дальность видимости в метрах или километрах. При видимости от 1 до 10 км при отсутствии осадков обычно наблюдается дымка, при ухудшении видимости до 1 км и менее - туман. В сухую погоду видимость может ухудшаться дымом, пылью или мглою.
Атмосферные явления - указаны явления, наблюдавшиеся в указанный момент времени.
Облачность - указаны через наклонную черту верхняя и нижняя облачность в баллах и высота нижней границы облаков в метрах. Внимание: облачность, как и прочие метеорологические величины в США измеряются автоматическими метеостанциями. Указанные значения в баллах носят условный характер и показывают процент времени, в течение которого, в среднем, лазерный луч высотомера отражался от облаков обратно.
T - Температура воздуха - температура, измеренная на высоте 2 м над землей.
Td - Температура точки росы - температура, при понижении до которой содержащийся в воздухе водяной пар достигнет насыщения.
f - Относительная влажность воздуха - влажноcть воздуха, измеренная на высоте 2 м над землей.
Te - Эффективная температура - температура, которую ощущает одетый по сезону человек в тени. Характеристика душности погоды. При расчете учитывается влияние влажности воздуха и скорости ветра на теплоощущения человека.
Tes - Эффективная температура на солнце - температура, которую ощущает человек, с поправкой на солнечный нагрев. Характеристика знойности погоды. Зависит от высоты солнца над горизонтом, облачности и скорости ветра. Ночью, в пасмурную погоду, а также при ветре 12 м/с и более поправка равна нулю.
P - Атмосферное давление - приведенное к уровню моря атмосферное давление.
Po - Атмосферное давление - измеренное на уровне метеостанции атмосферное давление.
Tmin - Минимальная температура - минимум температуры воздуха на высоте 2 м над землей.
Tmax - Максимальная температура - максимум температуры воздуха на высоте 2 м над землей.
R - Количество осадков - Количество выпавших осадков за 3 или 6 часов, мм.
SD - Снежный покров - Высота снежного покрова, см.